Simultaneous Nadir Overpasses (SNOs) Predictions

Prediction of SNOs between NOAA-19 and TERRA Satellite Orbit:

Table of predicted SNOs for the next 14.0 days since TLE Epoch: 7/15/2012
Index Date (NOAA-19) Time (NOAA-19) NOAA-19 Lat,Lon Date (TERRA) Time (TERRA) TERRA Lat,Lon Distance(km) Time Diff (sec)
1 07/15/2012 20:52:56 68.91,-133.75 07/15/2012 20:51:52 68.90,-133.70 2.26 64
2 07/17/2012 23:55:52 70.01, 178.99 07/17/2012 23:56:59 69.84,-178.80 86.04 67
3 07/18/2012 00:46:38 -69.00, -12.30 07/18/2012 00:46:42 -69.01, -12.28 0.75 4
4 07/18/2012 01:37:27 68.41, 155.75 07/18/2012 01:36:16 68.51, 154.74 42.58 71
5 07/20/2012 04:40:17 69.20, 109.03 07/20/2012 04:41:28 69.17, 109.23 8.41 71
6 07/20/2012 05:31:17 -68.95, -83.39 07/20/2012 05:31:00 -68.95, -83.43 1.44 17
7 07/22/2012 09:24:55 69.07, 38.04 07/22/2012 09:25:46 69.10, 38.06 3.37 51
8 07/22/2012 10:15:57 -68.96,-154.56 07/22/2012 10:15:17 -68.94,-154.51 2.61 40
9 07/24/2012 14:09:35 69.05, -33.09 07/24/2012 14:10:04 69.03, -33.11 2.90 29
10 07/24/2012 15:00:36 -68.90, 134.35 07/24/2012 14:59:34 -68.92, 134.39 2.39 62
11 07/26/2012 18:03:32 -70.02, 87.07 07/26/2012 18:04:39 -69.94, 89.40 89.03 67
12 07/26/2012 18:54:15 69.02,-104.21 07/26/2012 18:54:21 68.99,-104.22 3.43 6
13 07/26/2012 19:45:08 -68.48, 63.76 07/26/2012 19:43:57 -68.56, 62.87 37.37 71
14 07/28/2012 22:47:57 -69.23, 17.08 07/28/2012 22:49:09 -69.18, 17.31 10.59 72
15 07/28/2012 23:38:54 68.94,-175.27 07/28/2012 23:38:38 68.95,-175.34 3.09
